Probability
0 0 0 0 0 0 0 0 0 0 0 0 0 0 0 0 0 0 0 0 0 0 0 0 0 0 0 0 0 0 0 0 0 0 0 0 0 0 0 0 0 0 0 0 0 0 0 0 0
0 0 0 0 0 0 0 0 0 0 0 0 0 0 0 0 0 0 0 0 0 0 0 0 0 0 0 0 0 0 0 0 0 0 0 0 0 0 0 0 0 0 0 0 0 0 0 0 0
0 0 0 0 0 0 0 0 0 0 0 0 0 0 0 0 0 0 0 0 0 0 0 0 0 0 0 0 0 0 0 0 0 0 0 0 0 0 0 0 0 0 0 0 0 0 0 0 0
0 0 0 0 0 0 0 0 0 0 0 0 0 0 0 0 0 0 0 0 0 0 0 0 0 0 0 0 0 0 0 0 0 0 0 0 0 0 0 0 0 0 0 0 0 0 0 0 0
0 0 0 0 0 0 0 0 0 0 0 0 0 0 0 0 0 1 1 0 0 0 0 0 0 0 0 0 0 0 0 0 0 0 0 0 0 0 0 0 0 0 0 0 0 0 0 0 0
0 0 0 0 0 0 0 0 0 0 0 0 0 0 0 0 0 1 2 1 0 0 0 0 0 0 0 0 0 0 0 0 0 0 0 0 0 0 0 0 0 0 0 0 0 0 0 0 0
0 0 0 0 0 0 0 0 0 0 0 0 0 0 0 0 0 1 2 1 0 0 0 0 0 0 0 0 0 0 0 0 0 0 0 0 0 0 0 0 0 0 0 0 0 0 0 0 0
0 0 0 0 0 0 0 0 0 0 0 0 0 0 0 0 0 1 2 2 1 0 0 0 0 0 0 0 0 0 0 0 0 0 0 0 0 0 0 0 0 0 0 0 0 0 0 0 0
0 0 0 0 0 0 0 0 0 0 1 1 0 0 0 0 0 2 3 2 1 0 0 0 0 0 0 0 0 0 0 0 0 0 0 0 0 0 0 0 0 0 0 0 0 0 0 0 0
0 0 0 0 0 0 0 0 0 0 1 2 1 0 0 0 0 1 3 2 1 0 0 0 0 0 0 0 0 0 0 0 0 0 0 0 0 0 0 0 0 0 0 0 0 0 0 0 0
0 0 0 0 0 0 0 0 0 0 1 1 1 0 0 0 0 1 2 2 1 0 0 0 0 0 0 0 0 0 0 0 0 0 0 0 0 0 0 0 0 0 0 0 0 0 0 0 0
0 0 0 0 0 0 0 0 0 0 0 0 0 0 0 0 0 0 1 2 1 0 0 0 0 0 0 0 0 0 0 0 0 0 0 0 0 0 0 0 0 0 0 0 0 0 0 0 0
0 0 0 0 0 0 0 0 0 0 0 0 0 0 0 0 0 0 0 1 1 1 0 0 0 0 0 0 0 0 0 0 0 0 0 0 0 0 0 0 0 0 0 0 0 0 0 0 0
0 0 0 0 0 0 0 0 0 1 1 1 1 0 1 1 1 0 0 1 1 1 0 0 0 0 0 0 0 0 0 0 0 0 0 0 0 0 0 0 0 0 0 0 0 0 0 0 0
0 0 0 0 0 0 0 0 0 1 1 1 0 0 1 2 2 1 0 0 0 0 0 0 0 0 0 0 0 0 0 0 0 0 0 0 0 0 0 0 0 0 0 0 0 0 0 0 0
0 0 0 0 0 0 0 0 0 0 0 0 0 0 0 1 1 1 0 0 0 0 0 0 0 0 0 0 0 0 0 0 0 0 0 0 0 0 0 0 0 0 0 0 0 0 0 0 0
0 0 0 0 0 0 0 0 0 0 0 0 0 0 0 0 0 0 0 0 0 0 0 0 0 0 0 0 0 0 0 0 0 0 0 0 0 0 0 0 0 0 0 0 0 0 0 0 0
0 0 0 0 0 0 0 0 0 0 0 0 0 0 0 0 0 0 0 0 0 0 0 1 1 1 0 0 0 0 0 0 0 0 0 0 0 0 0 0 0 0 0 0 0 0 0 0 0
0 0 0 0 0 0 0 0 0 0 0 0 0 0 0 0 0 0 0 0 0 0 0 1 1 1 0 0 0 0 0 0 0 0 0 0 0 0 0 0 0 0 0 0 0 0 0 0 0
0 0 0 0 0 0 0 0 0 0 0 0 0 0 0 0 0 0 0 0 0 0 0 0 0 0 0 0 0 0 0 0 0 0 0 0 0 0 0 0 0 0 0 0 0 0 0 0 0
0 0 0 0 0 0 0 0 0 0 0 0 0 0 0 0 0 0 0 0 0 0 0 0 0 0 0 0 0 0 0 0 0 0 0 0 0 0 0 0 0 0 0 0 0 0 0 0 0
0 0 0 0 0 0 0 0 0 0 0 0 0 0 0 0 0 0 0 0 0 0 0 0 0 0 0 0 0 0 0 0 0 0 0 0 0 0 0 0 0 0 0 0 0 0 0 0 0
0 0 0 0 0 0 0 0 0 0 0 0 0 0 0 0 0 0 0 0 0 0 0 0 0 0 0 0 0 0 0 0 0 0 0 0 0 0 0 0 0 0 0 0 0 0 0 0 0
0 0 0 0 0 0 0 0 0 0 0 0 0 0 0 0 0 0 0 1 1 0 0 0 0 0 0 0 0 0 0 0 0 0 0 0 0 0 0 0 0 0 0 0 0 0 0 0 0
0 0 0 0 0 0 0 0 0 0 0 0 0 0 0 0 0 0 0 1 1 1 0 0 0 0 0 0 0 0 0 0 0 0 0 0 0 0 0 0 0 0 0 0 0 0 0 0 0
0 0 0 0 0 0 0 0 0 0 0 0 0 0 0 0 0 0 0 1 2 1 0 0 0 0 0 0 0 0 0 0 0 0 0 0 0 0 0 0 0 0 0 0 0 0 0 0 0
0 0 0 0 0 0 0 0 0 0 0 0 0 0 0 0 0 0 0 1 2 2 1 1 0 0 0 0 0 0 0 0 0 0 0 0 0 0 0 0 0 0 0 0 0 0 0 0 0
0 0 0 0 0 0 0 0 0 0 0 0 0 0 0 0 0 0 0 1 2 3 3 2 1 0 0 0 0 0 0 0 0 0 0 0 0 0 0 0 0 0 0 0 0 0 0 0 0
0 0 0 0 0 0 0 0 0 0 0 0 0 0 0 0 0 0 0 1 1 2 2 2 1 0 0 0 0 0 0 0 0 0 0 0 0 0 0 0 0 0 0 0 0 0 0 0 0
0 0 0 0 0 0 0 0 0 0 0 0 0 0 0 0 0 0 0 0 0 1 1 1 0 0 0 0 0 0 0 0 0 0 0 0 0 0 0 0 0 0 0 0 0 0 0 0 0
Wind_Speed
13 8 2 4 6 5 1 2 0 2 3 2 5 8 8 6 4 4 1 3 4 2 1 2 4 7 8 9 9 10 10 10 11 10 10 10 10 10 11 11 10 10 10 11 11 11 11 10 9
6 4 4 6 5 2 1 2 1 1 2 2 5 6 7 5 3 4 2 2 4 3 2 2 5 7 8 9 10 10 10 10 10 10 10 10 10 10 10 10 10 10 10 10 10 10 10 9 8
5 2 5 5 3 4 4 1 2 2 3 3 4 6 5 3 2 1 1 4 4 3 2 3 7 8 9 9 9 9 10 10 10 10 10 10 10 10 10 10 10 10 10 10 10 10 9 9 8
2 5 6 5 2 2 3 2 1 2 4 5 5 6 4 3 1 1 3 5 5 4 3 3 8 8 9 9 9 9 10 10 10 10 10 10 10 10 10 10 10 10 9 9 9 9 9 8 8
4 5 5 2 2 1 1 2 2 3 2 4 4 5 3 3 3 5 5 5 5 4 3 4 7 8 8 9 9 9 9 10 10 10 10 10 10 10 10 9 9 9 9 9 8 8 8 8 7
4 4 4 4 3 1 1 2 2 3 2 3 4 4 2 2 4 4 4 5 5 5 4 4 6 8 8 8 9 9 9 9 10 10 10 10 10 9 9 9 9 9 8 8 7 7 7 7 7
4 4 4 5 4 2 1 2 2 2 2 2 2 4 2 2 2 3 5 5 5 5 5 4 4 5 7 8 8 8 9 9 9 9 9 9 9 9 9 9 9 9 8 8 7 6 6 6 7
4 5 3 3 4 3 1 2 2 3 2 2 3 5 2 1 1 4 5 6 5 5 5 4 4 4 3 4 7 8 8 9 9 9 9 8 8 8 9 8 9 8 8 8 8 7 6 6 6
3 5 3 3 5 3 1 2 2 3 4 4 4 2 2 3 4 6 5 5 4 4 4 3 4 4 3 3 5 5 6 7 8 7 8 7 4 4 5 7 8 8 8 7 7 7 6 6 5
5 4 2 0 2 4 2 3 3 3 4 4 4 4 3 3 5 6 5 4 3 3 2 2 3 3 3 3 3 2 3 3 4 3 4 3 3 3 4 6 7 7 7 7 7 7 7 5 3
4 4 2 3 3 4 4 3 2 4 2 1 3 4 3 3 4 4 3 3 3 3 2 1 2 2 2 2 2 2 2 2 2 3 3 3 3 2 3 2 3 4 5 4 5 5 4 3 3
4 4 3 2 2 3 3 3 3 2 2 2 3 4 5 4 3 3 3 2 2 3 2 1 2 2 2 2 2 2 2 2 2 2 3 2 2 2 2 2 2 2 2 3 3 3 4 4 4
4 3 3 4 6 5 6 4 3 1 1 2 4 4 4 4 2 1 2 2 2 2 2 1 2 2 2 2 2 2 2 2 2 2 2 2 2 1 1 1 1 2 2 2 2 3 4 4 4
4 4 3 3 4 3 5 2 3 1 1 3 4 3 2 2 2 2 1 2 2 2 2 2 2 2 2 2 2 2 1 1 2 2 3 3 2 1 1 1 2 2 2 2 2 2 3 3 3
4 5 4 3 3 2 4 3 0 2 2 3 2 2 2 1 1 2 2 2 3 3 2 2 2 2 2 2 2 2 1 1 2 1 2 2 2 2 1 1 2 2 2 2 2 3 2 3 3
2 3 2 2 1 1 3 1 2 2 3 2 1 1 1 1 2 2 1 2 2 3 3 2 2 3 3 2 2 2 1 1 1 1 1 2 2 2 1 1 1 2 2 2 2 2 2 3 3
3 2 1 1 2 1 3 2 2 1 2 2 2 2 2 2 1 2 2 2 3 4 4 3 2 3 2 2 2 2 2 1 1 1 1 2 2 2 1 1 1 2 2 2 2 2 2 2 4
2 2 1 0 1 2 2 2 3 2 3 3 3 3 3 3 3 2 2 2 3 3 3 4 3 2 2 2 2 2 2 1 1 1 2 2 2 2 2 1 2 2 2 2 2 2 2 2 3
3 3 2 0 1 1 1 3 4 4 3 4 4 3 4 4 3 2 2 2 2 2 2 3 3 2 2 2 1 1 1 1 1 1 2 2 2 2 2 2 2 2 2 2 2 2 3 3 3
4 4 2 2 1 1 1 4 5 4 5 5 5 5 5 3 2 2 2 2 3 3 2 2 2 2 3 2 2 2 2 1 0 1 1 2 2 2 2 2 2 2 2 2 3 2 2 2 2
3 2 2 1 2 2 2 5 3 2 2 2 3 3 3 4 4 3 2 3 2 2 3 3 2 2 2 2 2 1 1 1 1 1 1 2 2 2 2 2 1 2 2 1 2 2 2 2 2
1 0 1 1 2 2 1 2 5 2 2 3 4 3 4 3 2 2 3 2 2 2 2 2 2 2 2 2 3 3 2 1 1 1 0 1 1 2 1 1 1 1 1 2 2 2 2 1 2
1 1 2 2 2 2 1 1 7 2 3 5 5 5 5 3 3 3 3 4 3 2 1 1 2 2 2 2 3 3 2 1 1 0 0 1 1 1 2 2 1 1 1 2 2 2 2 1 1
1 3 3 3 3 1 2 2 6 3 4 3 3 5 5 4 3 3 2 2 2 1 1 1 1 1 2 2 2 2 2 1 1 0 1 1 1 1 2 2 1 2 2 2 2 1 2 1 2
3 4 4 5 4 4 1 2 8 5 4 4 3 4 4 3 3 2 2 2 2 2 2 2 2 2 2 2 2 2 2 2 2 2 1 1 1 1 2 1 1 2 2 2 2 2 2 2 2
1 3 5 3 3 4 2 4 7 4 3 2 2 2 1 2 3 3 3 4 3 4 3 3 3 3 2 2 2 2 2 2 1 2 1 1 1 1 1 1 1 2 2 2 2 2 2 2 2
1 1 2 5 2 2 4 5 7 2 2 2 1 1 1 2 3 4 3 3 4 4 4 5 4 3 2 2 2 1 2 2 1 1 1 1 1 1 1 1 1 2 2 2 2 2 2 2 3
1 3 3 4 3 2 5 4 5 4 4 3 3 3 3 3 3 3 3 4 4 4 4 3 4 4 3 2 2 1 1 2 1 1 1 1 1 1 1 1 1 2 2 2 2 2 3 3 3
1 1 3 3 3 4 3 7 6 5 4 4 5 5 4 4 4 4 3 3 3 2 2 3 3 2 2 2 2 1 1 1 1 1 2 2 1 1 1 1 2 2 2 2 2 3 3 3 3
2 3 4 4 3 3 2 8 4 4 3 3 4 4 3 4 4 3 3 2 2 2 2 2 2 2 3 2 2 2 1 1 1 2 2 2 2 2 2 2 2 2 3 2 2 3 3 3 4
Wind_Direction
328 322 15 53 57 58 78 296 329 34 40 39 64 81 89 75 80 121 66 86 85 95 51 39 50 67 72 74 73 71 73 75 76 77 76 78 81 82 80 77 74 73 73 73 74 75 75 74 73
319 332 49 58 87 109 258 285 66 45 137 125 61 70 77 70 59 88 62 92 103 101 67 55 58 68 74 77 76 74 72 74 75 74 74 75 77 79 78 77 74 71 70 71 72 73 73 72 67
318 34 72 76 104 162 176 205 121 53 52 68 65 50 72 75 55 77 124 123 104 93 62 58 64 70 75 77 75 75 74 74 74 73 72 71 73 76 75 74 72 70 68 68 68 68 66 64 60
34 52 61 80 136 205 179 230 124 63 35 38 81 66 57 33 21 62 114 115 106 92 74 73 69 75 77 77 73 71 74 73 72 72 71 72 71 70 70 69 69 67 65 65 65 63 59 55 51
59 80 82 92 181 188 189 313 31 63 36 26 69 92 65 1 42 95 103 104 104 88 79 84 71 72 76 78 75 71 71 72 71 71 71 71 69 68 67 65 65 64 62 60 59 59 55 48 41
60 77 111 170 183 194 268 356 56 67 65 28 64 97 98 22 53 83 95 92 95 92 76 74 67 69 70 71 72 70 69 69 69 70 70 68 67 66 65 61 60 58 57 56 52 53 49 42 33
100 99 143 161 160 184 216 36 60 91 64 15 50 101 107 10 40 81 88 90 87 85 77 62 62 65 67 68 67 68 68 67 66 65 65 63 59 57 56 53 53 52 48 46 43 43 44 35 29
116 104 118 155 160 184 191 90 74 71 83 16 48 116 153 254 80 89 89 88 86 80 74 62 54 51 56 68 67 69 68 65 63 60 59 60 59 54 50 46 45 45 42 39 35 33 31 25 24
75 87 152 172 166 165 133 103 58 52 84 53 48 77 128 129 108 97 86 77 81 76 68 63 59 53 51 60 65 72 71 65 65 59 57 57 49 51 48 40 40 38 36 32 27 20 19 18 11
67 118 175 250 137 130 98 98 113 81 62 67 61 46 77 98 109 112 110 106 102 100 86 75 73 67 60 63 59 63 69 68 63 59 53 51 47 42 50 42 37 32 30 24 18 13 14 10 356
68 117 116 61 76 95 83 57 54 118 92 140 140 136 116 93 98 117 125 129 138 134 106 81 85 80 75 66 70 59 55 52 55 52 47 52 50 41 40 36 25 18 19 13 2 3 360 349 342
80 49 64 67 59 73 84 86 57 73 147 151 139 137 133 122 130 145 149 146 135 126 110 86 80 81 76 81 85 76 66 51 43 37 41 51 47 39 29 27 14 11 5 359 358 350 346 340 334
78 82 53 71 70 76 82 75 83 29 93 104 107 106 126 141 144 128 120 113 121 125 123 122 98 97 89 85 77 76 68 67 54 42 29 37 49 44 25 4 5 359 356 354 347 346 347 342 339
115 103 84 72 76 60 88 65 80 261 119 102 105 108 117 141 149 102 101 121 129 134 136 127 111 109 98 93 86 83 75 71 64 50 33 34 34 33 33 8 359 349 342 340 334 336 342 338 338
113 89 57 50 84 123 87 36 265 205 126 102 116 132 125 171 155 155 179 172 164 160 148 127 124 106 103 99 93 85 67 68 67 50 31 35 30 25 22 19 3 344 336 336 341 348 348 348 343
76 73 68 351 55 131 103 240 261 188 140 147 197 201 194 212 202 210 192 180 167 150 151 144 126 113 107 105 104 97 81 73 59 43 35 30 30 26 23 19 351 337 349 357 356 0 352 346 338
48 101 135 326 354 96 126 222 263 197 156 188 225 229 223 233 258 251 227 196 181 165 157 151 142 138 135 123 114 101 94 81 58 39 33 20 25 25 28 12 346 348 2 5 357 359 356 342 334
156 143 133 223 343 86 130 241 266 232 194 217 234 240 231 222 244 243 234 203 180 166 158 158 160 157 146 129 103 85 67 48 45 42 28 26 22 21 19 14 359 5 6 1 352 342 351 336 323
130 111 104 292 330 59 185 266 268 237 226 238 242 239 238 237 241 229 205 186 147 130 145 160 159 156 142 146 142 125 97 27 24 29 33 32 21 20 28 16 4 8 6 346 344 338 345 349 347
104 101 68 357 7 65 24 295 275 232 219 216 215 222 228 236 244 238 217 183 166 169 177 170 169 165 165 165 164 154 157 154 131 13 31 28 18 10 23 24 11 1 358 3 1 358 348 341 359
60 119 147 161 348 32 18 324 299 275 231 229 224 221 223 212 213 216 204 199 168 170 181 179 178 163 172 158 131 116 95 74 51 6 7 9 10 3 6 3 15 7 8 349 341 349 358 329 322
82 139 128 119 69 334 56 308 296 283 297 260 246 239 237 229 204 199 191 191 190 198 188 180 175 165 166 161 147 145 151 183 218 239 275 1 7 2 356 350 354 350 342 340 333 348 325 314 315
167 144 90 98 99 18 22 164 289 319 293 271 249 237 237 225 202 200 202 202 196 178 165 181 164 153 148 147 165 169 176 199 200 157 295 310 321 338 349 351 350 342 331 326 335 334 328 304 298
99 58 54 49 63 346 258 173 281 252 233 261 255 238 234 226 211 206 204 194 193 164 142 135 137 159 153 143 138 158 167 175 159 238 262 289 307 320 339 346 343 325 317 317 316 310 311 302 301
46 76 38 11 8 264 264 187 251 254 233 227 245 244 234 220 205 208 208 205 203 193 184 173 169 184 174 157 164 170 174 176 192 217 229 260 298 302 305 321 321 326 318 318 314 294 289 283 285
23 120 142 177 236 285 321 238 253 261 262 254 244 235 217 218 213 216 214 209 205 202 196 190 192 201 189 180 196 184 178 187 206 213 206 218 242 267 303 308 310 313 316 321 319 311 301 301 285
105 108 145 123 68 320 283 283 296 270 289 291 277 271 246 240 232 229 227 220 212 207 203 198 198 204 197 189 181 175 168 171 197 205 195 224 258 287 319 319 320 320 322 319 315 308 309 309 302
88 136 99 112 133 282 295 274 257 275 263 263 258 247 254 259 257 245 233 226 221 216 212 195 193 201 200 185 189 189 189 192 190 175 222 243 264 288 304 315 312 312 314 316 315 311 312 308 306
113 111 110 113 150 164 267 273 230 225 236 233 240 240 246 245 244 242 241 235 231 229 212 201 201 203 204 197 192 188 205 212 195 200 232 244 257 268 269 276 288 296 302 306 304 298 302 298 302
195 181 156 158 218 191 207 267 266 230 247 235 246 253 253 244 244 241 241 246 239 232 222 210 213 214 221 207 190 201 215 212 224 230 238 239 243 251 259 267 273 283 290 290 287 288 293 290 292